Location: Reggio Emilia
(44.6990°N, 10.6297°E)
Time: 02:14:02
(UTC+01:00)

ISS - Pass Details

Date: 07 December 2021
Orbit: 413 x 422 km, 51.6° (Epoch: 23 January)

Event Time Altitude Azimuth Distance (km) Brightness Sun altitude
Rises 18:42:59 0° 290° (WNW) 2,380 1.0 -21.6°
Reaches altitude 10° 18:45:31 10° 271° (W) 1,509 0.1 -22.0°
Maximum altitude 18:47:55 18° 225° (SW) 1,099 -1.0 -22.4°
Drops below altitude 10° 18:50:19 10° 180° (S) 1,496 -0.9 -22.9°
Enters shadow 18:50:20 10° 180° (S) 1,503 -0.9 -22.9°
